Location: Boitzum
(52.1496°N, 9.6943°E)
Time: 20:07:48
(UTC+00:00)

ATLAS 2AS CENTAUR R/B - Pass Details

Date: 13 January 2026
Orbit: 1050 x 1161 km, 63.7° (Epoch: 16 February)

Event Time Altitude Azimuth Distance (km) Brightness Sun altitude
Exits shadow 05:06:37 24° 320° (NW) 2,024 3.7 -20.3°
Maximum altitude 05:10:54 71° 40° (NE) 1,110 2.8 -19.6°
Drops below altitude 10° 05:17:39 10° 125° (SE) 2,865 6.0 -18.6°
Sets 05:20:18 0° 127° (SE) 3,822 6.8 -18.2°
